Home   Weather   Stans   Past weeks

Flag for Switzerland Past Weather in Stans, Nidwalden, Switzerland — Yesterday and Last 2 Weeks

Now
73 °F

Mild.


Feels Like: 77 °F
Forecast: 50 / 74 °F
Wind: 2 mph from Northeast

Location: Giswil

Current Time: Sep 29, 2016 at 5:17:27 PM

Latest Report: Sep 29, 2016 at 4:00 PM


Visibility: N/A

Pressure: 30.14 "Hg

Humidity: 47%

Dew Point: 51 °F

Location of StansLocation

Past Weather in Stans — Graph

°F

Stans Temperature Yesterday

Maximum temperature yesterday: 70 °F (at 4:00 PM)
Minimum temperature yesterday: 45 °F (at 7:00 AM)
Average temperature yesterday: 56 °F

High & Low Weather Summary for the Past Weeks

 TemperatureHumidityPressure
High80 °F (Sep 14, 4:00 PM)100% (Sep 16, 8:00 AM)30.49 "Hg (Sep 16, 8:00 AM)
Low44 °F (Sep 25, 7:00 AM)47% (Sep 29, 4:00 PM)29.74 "Hg (Sep 15, 5:00 AM)
Average58 °F87%30.13 "Hg
* Reported Sep 14 4:00 PM — Sep 29 4:00 PM, Stans, Weather by CustomWeather, © 2016

Note: Actual official high and low records may vary slightly from our data, if they occured in-between our weather recording intervals... More about our weather records

Advertising

Stans Weather History for the Previous 24 Hours

Scroll right to see more
 ConditionsComfort  
Time TempWeatherWind HumidityBarometerVisibility
4:00 PM
Thu, Sep 29
73 °FMild.2 mph47%30.14 "HgN/A
3:00 PM71 °FMild.2 mph54%30.16 "HgN/A
2:00 PM69 °FMild.1 mph53%30.20 "HgN/A
1:00 PM67 °FMild.2 mph60%30.23 "HgN/A
12:00 PM64 °FMild.1 mph68%30.27 "HgN/A
11:00 AM60 °FCool.1 mph79%30.30 "HgN/A
10:00 AM56 °FCool.1 mph95%30.33 "HgN/A
9:00 AM47 °FCool.No wind99%30.36 "HgN/A
8:00 AM46 °FCool.1 mph99%30.37 "HgN/A
7:00 AM46 °FCool.1 mph99%30.38 "HgN/A
6:00 AM47 °FCool.2 mph100%30.38 "HgN/A
5:00 AM47 °FCool.1 mph99%30.39 "HgN/A
4:00 AM48 °FCool.2 mph99%30.41 "HgN/A
3:00 AM48 °FCool.No wind99%30.42 "HgN/A
2:00 AM49 °FCool.3 mph100%30.42 "HgN/A
1:00 AM49 °FCool.1 mph99%30.44 "HgN/A
12:00 AM51 °FCool.1 mph99%30.44 "HgN/A
11:00 PM
Wed, Sep 28
52 °FCool.2 mph99%30.44 "HgN/A
10:00 PM54 °FCool.2 mph97%30.43 "HgN/A
9:00 PM54 °FCool.2 mph98%30.44 "HgN/A
8:00 PM58 °FCool.3 mph93%30.42 "HgN/A
7:00 PM62 °FMild.2 mph83%30.40 "HgN/A
6:00 PM66 °FMild.3 mph72%30.37 "HgN/A
5:00 PM70 °FMild.1 mph58%30.36 "HgN/A
Weather by CustomWeather, © 2016

See weather overviewHow to use our weather pages